Hourly Data Report for February 15, 2017

All times are specified in Local Standard Time (LST). Add 1 hour to adjust for Daylight Saving Time where and when it is observed.

TORONTO CITY
ONTARIO

43°40'00.000" N
79°24'00.000" W
112.50 m
6158355
71508
XTO

Download Data

Hourly Data (February 2017)
Hourly Data Report for February 15, 2017
TIME Temp Definition
°C
Dew Point Definition
°C
Rel Hum Definition
%
Wind Dir Definition
10's deg

Wind Spd Definition
km/h
Visibility Definition
km
Stn Press Definition
kPa
Hmdx Definition


Wind Chill Definition


Weather Definition


00:00 2.7 0.1 83 LegendMM LegendMM   98.43     LegendNANA
01:00 2.9 -0.1 81 LegendMM LegendMM   98.44     LegendNANA
02:00 2.5 -0.4 81 LegendMM LegendMM   98.42     LegendNANA
03:00 2.0 -1.7 77 LegendMM LegendMM   98.42     LegendNANA
04:00 1.1 -2.5 77 LegendMM LegendMM   98.38     LegendNANA
05:00 0.4 -2.9 79 LegendMM LegendMM   98.41     LegendNANA
06:00 0.4 -3.2 77 LegendMM LegendMM   98.42     LegendNANA
07:00 0.4 -3.3 76 LegendMM LegendMM   98.40     LegendNANA
08:00 0.8 -3.7 72 LegendMM LegendMM   98.44     LegendNANA
09:00 1.4 -4.3 66 LegendMM LegendMM   98.46     LegendNANA
10:00 1.4 -3.9 68 LegendMM LegendMM   98.46     LegendNANA
11:00 1.7 -3.2 70 LegendMM LegendMM   98.50     LegendNANA
12:00 1.9 -3.6 67 LegendMM LegendMM   98.54     LegendNANA
13:00 1.1 -3.7 71 LegendMM LegendMM   98.55     LegendNANA
14:00 0.8 -4.5 68 LegendMM LegendMM   98.57     LegendNANA
15:00 0.6 -6.3 60 LegendMM LegendMM   98.64     LegendNANA
16:00 -0.7 -6.3 65 LegendMM LegendMM   98.70     LegendNANA
17:00 -1.3 -6.6 67 LegendMM LegendMM   98.78     LegendNANA
18:00 -1.8 -6.5 70 LegendMM LegendMM   98.86     LegendNANA
19:00 -2.8 -7.3 71 LegendMM LegendMM   98.95     LegendNANA
20:00 -3.2 -8.2 68 LegendMM LegendMM   99.00     LegendNANA
21:00 -3.6 -8.7 68 LegendMM LegendMM   99.05     LegendNANA
22:00 -4.2 -9.4 67 LegendMM LegendMM   99.06     LegendNANA
23:00 -4.4 -9.2 69 LegendMM LegendMM   99.07     LegendNANA

Notes on Data Quality.

Legend

  • E = Estimated
  • M = Missing
  • NA = Not Available
Date modified: